WXM80 ListenWXM80 Stop

You find our weather info also at:

UK Metoffice

WeatherCloud

Weather Underground

Northeastern Weather Network

AWEKAS

Citizen Weather Observer Program (CWOP)

HAMweather, WeatherForYou, PWS Weather


Weather Underground History page Text

Daily Summary for July 3, 2017 Units:  English    Metric   Both
« Previous Day
Next Day »
Daily Weekly Monthly Yearly Custom
  High: Low: Average:
Temperature: 94.8 °F 68.8 °F 80.7 °F
Dew Point: 70.4 °F 64.6 °F 67.2 °F
Humidity: 90 % 40 % 66 %
Wind Speed: 5.0 mph 0.0 mph 1.2 mph
Wind Gust: 12.0 mph - -
Wind:- - WSW
Pressure: 29.97 in 29.89 in -
Precipitation: 0.00 in    
Historical Graphs
 
 
Tabular Data for July 3, 2017
Time Temperature Dew Point Pressure Wind Wind Speed Wind Gust Humidity Rainfall Rate (Hourly)
00:03 75.5 °F 67.0 °F 29.90 in Calm     75 % 0.00 in
00:08 75.5 °F 67.0 °F 29.90 in Calm     75 % 0.00 in
00:13 75.4 °F 66.9 °F 29.90 in Calm   1.2 mph 75 % 0.00 in
00:18 75.3 °F 66.8 °F 29.90 in Calm     75 % 0.00 in
00:23 75.2 °F 67.1 °F 29.90 in Calm     76 % 0.00 in
00:28 75.1 °F 67.0 °F 29.90 in SW 0.1 mph 1.2 mph 76 % 0.00 in
00:33 75.0 °F 66.9 °F 29.90 in SW 0.5 mph 2.3 mph 76 % 0.00 in
00:38 74.9 °F 66.8 °F 29.90 in Calm   1.2 mph 76 % 0.00 in
00:43 74.8 °F 67.1 °F 29.90 in Calm   1.2 mph 77 % 0.00 in
00:48 74.8 °F 67.1 °F 29.90 in Calm   1.2 mph 77 % 0.00 in
00:53 74.7 °F 67.0 °F 29.91 in Calm     77 % 0.00 in
00:58 74.7 °F 67.4 °F 29.90 in Calm     78 % 0.00 in
01:03 74.7 °F 67.4 °F 29.91 in Calm     78 % 0.00 in
01:08 74.6 °F 67.3 °F 29.90 in Calm     78 % 0.00 in
01:13 74.6 °F 67.3 °F 29.90 in Calm     78 % 0.00 in
01:18 74.5 °F 67.2 °F 29.90 in Calm     78 % 0.00 in
01:23 74.3 °F 67.4 °F 29.90 in Calm     79 % 0.00 in
01:28 74.1 °F 67.2 °F 29.90 in Calm     79 % 0.00 in
01:33 73.9 °F 67.3 °F 29.90 in Calm     80 % 0.00 in
01:38 73.7 °F 67.1 °F 29.90 in Calm     80 % 0.00 in
01:43 73.5 °F 66.9 °F 29.90 in Calm     80 % 0.00 in
01:48 73.3 °F 66.8 °F 29.90 in Calm     80 % 0.00 in
01:53 73.2 °F 67.0 °F 29.90 in Calm     81 % 0.00 in
01:58 73.1 °F 66.9 °F 29.90 in Calm     81 % 0.00 in
02:04 72.9 °F 67.1 °F 29.90 in Calm     82 % 0.00 in
02:09 72.7 °F 66.9 °F 29.90 in Calm   1.2 mph 82 % 0.00 in
02:14 72.6 °F 66.8 °F 29.90 in Calm     82 % 0.00 in
02:19 72.4 °F 66.9 °F 29.90 in Calm     83 % 0.00 in
02:24 72.2 °F 66.7 °F 29.90 in Calm     83 % 0.00 in
02:29 72.1 °F 66.6 °F 29.89 in Calm   1.2 mph 83 % 0.00 in
02:34 71.9 °F 66.8 °F 29.90 in Calm     84 % 0.00 in
02:39 71.8 °F 66.7 °F 29.90 in SW 0.3 mph 1.2 mph 84 % 0.00 in
02:44 71.7 °F 66.6 °F 29.89 in Calm   1.2 mph 84 % 0.00 in
02:49 71.6 °F 66.8 °F 29.89 in SW 0.2 mph 1.2 mph 85 % 0.00 in
02:54 71.5 °F 66.8 °F 29.89 in SW 0.1 mph 1.2 mph 85 % 0.00 in
02:59 71.4 °F 66.7 °F 29.89 in Calm     85 % 0.00 in
03:04 71.4 °F 66.7 °F 29.89 in SW 0.1 mph 1.2 mph 85 % 0.00 in
03:09 71.4 °F 66.7 °F 29.89 in Calm     85 % 0.00 in
03:14 71.3 °F 66.6 °F 29.89 in SW 0.1 mph 1.0 mph 85 % 0.00 in
03:19 71.3 °F 66.6 °F 29.89 in Calm     85 % 0.00 in
03:24 71.2 °F 66.5 °F 29.89 in Calm   1.2 mph 85 % 0.00 in
03:27 71.2 °F 66.5 °F 29.89 in SW 0.2 mph 1.2 mph 85 % 0.00 in
03:33 71.1 °F 66.4 °F 29.89 in Calm   1.2 mph 85 % 0.00 in
03:38 71.0 °F 66.6 °F 29.89 in SW 0.2 mph 1.2 mph 86 % 0.00 in
03:43 70.9 °F 66.5 °F 29.89 in SW 0.1 mph 1.2 mph 86 % 0.00 in
03:48 70.8 °F 66.4 °F 29.89 in SW 1.0 mph 2.3 mph 86 % 0.00 in
03:53 70.8 °F 66.4 °F 29.89 in Calm   1.2 mph 86 % 0.00 in
03:58 70.7 °F 66.3 °F 29.89 in SW 0.2 mph 2.3 mph 86 % 0.00 in
04:03 70.7 °F 66.3 °F 29.89 in SW 0.1 mph 1.2 mph 86 % 0.00 in
04:08 70.6 °F 66.2 °F 29.89 in Calm   1.0 mph 86 % 0.00 in
04:13 70.6 °F 66.2 °F 29.90 in SW 0.2 mph 1.2 mph 86 % 0.00 in
04:18 70.6 °F 66.2 °F 29.90 in Calm   1.2 mph 86 % 0.00 in
04:23 70.6 °F 66.2 °F 29.90 in Calm     86 % 0.00 in
04:28 70.7 °F 66.3 °F 29.89 in SW 0.7 mph 2.3 mph 86 % 0.00 in
04:33 70.6 °F 66.2 °F 29.90 in Calm   1.2 mph 86 % 0.00 in
04:38 70.7 °F 66.3 °F 29.90 in SW 0.1 mph 1.0 mph 86 % 0.00 in
04:43 70.7 °F 66.3 °F 29.90 in SW 0.3 mph 2.0 mph 86 % 0.00 in
04:48 70.6 °F 66.2 °F 29.90 in SW 0.2 mph 2.3 mph 86 % 0.00 in
04:53 70.5 °F 66.1 °F 29.90 in Calm     86 % 0.00 in
04:58 70.4 °F 66.3 °F 29.90 in Calm   1.2 mph 87 % 0.00 in
05:03 70.3 °F 66.2 °F 29.90 in Calm   1.2 mph 87 % 0.00 in
05:08 70.2 °F 66.1 °F 29.91 in Calm   1.2 mph 87 % 0.00 in
05:13 70.1 °F 66.0 °F 29.91 in SW 0.2 mph 1.0 mph 87 % 0.00 in
05:18 70.0 °F 66.0 °F 29.91 in Calm     87 % 0.00 in
05:23 69.9 °F 65.5 °F 29.91 in Calm     86 % 0.00 in
05:29 69.8 °F 65.4 °F 29.91 in Calm     86 % 0.00 in
05:34 69.6 °F 65.6 °F 29.91 in Calm     87 % 0.00 in
05:39 69.5 °F 65.5 °F 29.92 in Calm     87 % 0.00 in
05:44 69.4 °F 65.4 °F 29.91 in Calm     87 % 0.00 in
05:49 69.2 °F 65.2 °F 29.91 in Calm     87 % 0.00 in
05:54 69.1 °F 65.1 °F 29.92 in Calm     87 % 0.00 in
05:59 69.0 °F 65.0 °F 29.91 in Calm     87 % 0.00 in
06:04 68.9 °F 65.2 °F 29.91 in Calm     88 % 0.00 in
06:09 68.9 °F 65.2 °F 29.91 in Calm     88 % 0.00 in
06:14 68.8 °F 65.4 °F 29.91 in Calm     89 % 0.00 in
06:19 68.8 °F 65.4 °F 29.91 in SW 0.2 mph 1.2 mph 89 % 0.00 in
06:24 68.9 °F 65.5 °F 29.91 in SW 0.8 mph 2.3 mph 89 % 0.00 in
06:29 69.0 °F 65.9 °F 29.92 in SW 1.0 mph 2.3 mph 90 % 0.00 in
06:34 69.1 °F 65.7 °F 29.92 in WSW 0.6 mph 3.5 mph 89 % 0.00 in
06:39 69.3 °F 65.9 °F 29.92 in WSW 1.4 mph 2.3 mph 89 % 0.00 in
06:44 69.6 °F 66.2 °F 29.92 in SW 0.7 mph 3.5 mph 89 % 0.00 in
06:49 69.9 °F 66.5 °F 29.92 in SW 0.4 mph 2.3 mph 89 % 0.00 in
06:54 70.3 °F 66.9 °F 29.92 in SW 1.1 mph 3.5 mph 89 % 0.00 in
06:59 70.8 °F 67.1 °F 29.92 in SW 0.2 mph 1.2 mph 88 % 0.00 in
07:04 71.2 °F 67.1 °F 29.92 in WSW 1.0 mph 2.3 mph 87 % 0.00 in
07:06 71.4 °F 67.3 °F 29.92 in WSW 1.8 mph 5.0 mph 87 % 0.00 in
07:11 71.9 °F 67.5 °F 29.92 in WSW 0.5 mph 2.3 mph 86 % 0.00 in
07:16 72.5 °F 67.7 °F 29.92 in WSW 0.8 mph 3.5 mph 85 % 0.00 in
07:21 73.1 °F 68.0 °F 29.92 in West 0.8 mph 2.3 mph 84 % 0.00 in
07:26 73.6 °F 68.5 °F 29.92 in WNW 1.3 mph 3.0 mph 84 % 0.00 in
07:31 74.1 °F 68.6 °F 29.93 in West 1.6 mph 3.5 mph 83 % 0.00 in
07:36 74.6 °F 68.7 °F 29.92 in Calm     82 % 0.00 in
07:41 74.9 °F 68.3 °F 29.93 in Calm   1.2 mph 80 % 0.00 in
07:46 75.3 °F 68.7 °F 29.93 in West 1.3 mph 3.5 mph 80 % 0.00 in
07:51 75.6 °F 68.6 °F 29.93 in West 1.9 mph 3.5 mph 79 % 0.00 in
07:56 75.8 °F 68.4 °F 29.93 in SW 2.7 mph 3.5 mph 78 % 0.00 in
08:01 75.9 °F 68.2 °F 29.93 in WSW 0.7 mph 3.5 mph 77 % 0.00 in
08:06 76.0 °F 68.3 °F 29.93 in West 3.1 mph 5.8 mph 77 % 0.00 in
08:11 76.1 °F 68.4 °F 29.93 in WSW 3.8 mph 6.9 mph 77 % 0.00 in
08:16 76.2 °F 68.5 °F 29.93 in SW 2.5 mph 4.6 mph 77 % 0.00 in
08:21 76.2 °F 68.5 °F 29.92 in West 1.7 mph 3.5 mph 77 % 0.00 in
08:27 76.2 °F 68.5 °F 29.92 in WSW 1.8 mph 3.5 mph 77 % 0.00 in
08:31 76.3 °F 67.8 °F 29.93 in West 3.4 mph 6.9 mph 75 % 0.00 in
08:37 76.4 °F 67.9 °F 29.93 in West 3.0 mph 4.0 mph 75 % 0.00 in
08:42 76.5 °F 67.6 °F 29.93 in SW 3.8 mph 5.8 mph 74 % 0.00 in
08:43 76.5 °F 67.6 °F 29.93 in WSW 5.0 mph 8.1 mph 74 % 0.00 in
08:48 76.7 °F 67.8 °F 29.93 in WNW 1.4 mph 3.5 mph 74 % 0.00 in
08:53 76.8 °F 67.9 °F 29.93 in West 2.7 mph 3.5 mph 74 % 0.00 in
08:58 76.9 °F 68.0 °F 29.93 in WNW 2.3 mph 4.6 mph 74 % 0.00 in
09:03 77.1 °F 67.4 °F 29.93 in West 4.4 mph 6.9 mph 72 % 0.00 in
09:08 77.2 °F 66.7 °F 29.93 in WNW 2.1 mph 6.9 mph 70 % 0.00 in
09:13 77.4 °F 66.8 °F 29.93 in West 3.0 mph 3.5 mph 70 % 0.00 in
09:18 77.6 °F 67.4 °F 29.94 in WSW 1.3 mph 3.5 mph 71 % 0.00 in
09:23 77.7 °F 66.7 °F 29.93 in SW 4.7 mph 8.1 mph 69 % 0.00 in
09:28 77.9 °F 66.9 °F 29.93 in WSW 0.4 mph 3.5 mph 69 % 0.00 in
09:33 78.1 °F 67.5 °F 29.93 in WSW 3.1 mph 5.8 mph 70 % 0.00 in
09:38 78.3 °F 68.1 °F 29.93 in West 2.1 mph 3.5 mph 71 % 0.00 in
09:43 78.6 °F 68.4 °F 29.93 in SW 2.7 mph 4.6 mph 71 % 0.00 in
09:48 79.0 °F 68.0 °F 29.94 in SW 3.3 mph 6.9 mph 69 % 0.00 in
09:53 79.6 °F 69.0 °F 29.94 in West 2.1 mph 3.5 mph 70 % 0.00 in
09:58 80.2 °F 68.7 °F 29.93 in WSW 1.9 mph 6.9 mph 68 % 0.00 in
10:03 81.1 °F 70.0 °F 29.93 in NW 2.7 mph 4.6 mph 69 % 0.00 in
10:04 81.2 °F 70.1 °F 29.93 in NW 2.2 mph 3.5 mph 69 % 0.00 in
10:09 81.9 °F 70.3 °F 29.93 in WNW 1.0 mph 3.5 mph 68 % 0.00 in
10:14 82.7 °F 69.3 °F 29.94 in WSW 2.0 mph 3.5 mph 64 % 0.00 in
10:15 82.9 °F 69.5 °F 29.94 in WSW 4.1 mph 5.0 mph 64 % 0.00 in
10:20 83.8 °F 70.3 °F 29.94 in WNW 1.8 mph 5.0 mph 64 % 0.00 in
10:25 84.5 °F 69.1 °F 29.94 in WNW 1.9 mph 5.8 mph 60 % 0.00 in
10:31 85.0 °F 67.5 °F 29.94 in West 3.0 mph 9.0 mph 56 % 0.00 in
10:36 85.6 °F 70.1 °F 29.94 in WSW 1.0 mph 5.0 mph 60 % 0.00 in
10:41 86.3 °F 68.2 °F 29.94 in WNW 1.0 mph 7.0 mph 55 % 0.00 in
10:46 86.6 °F 67.5 °F 29.93 in West 2.0 mph 7.0 mph 53 % 0.00 in
10:51 87.0 °F 68.3 °F 29.93 in WSW 3.3 mph 5.8 mph 54 % 0.00 in
10:56 87.4 °F 68.2 °F 29.93 in WSW 5.0 mph 10.0 mph 53 % 0.00 in
11:01 87.6 °F 68.4 °F 29.93 in West 4.4 mph 6.9 mph 53 % 0.00 in
11:06 87.7 °F 69.0 °F 29.93 in WSW 2.0 mph 7.0 mph 54 % 0.00 in
11:11 87.9 °F 70.2 °F 29.93 in WSW 2.8 mph 7.0 mph 56 % 0.00 in
11:16 88.2 °F 68.4 °F 29.93 in WNW 4.9 mph 6.0 mph 52 % 0.00 in
11:20 88.3 °F 66.1 °F 29.93 in WNW 3.2 mph 6.9 mph 48 % 0.00 in
11:26 88.6 °F 67.5 °F 29.93 in West 3.0 mph 5.0 mph 50 % 0.00 in
11:31 88.7 °F 66.5 °F 29.93 in WSW 5.0 mph 10.0 mph 48 % 0.00 in
11:36 88.8 °F 67.8 °F 29.93 in WSW 2.0 mph 12.0 mph 50 % 0.00 in
11:41 89.1 °F 67.5 °F 29.93 in WSW 3.0 mph 9.0 mph 49 % 0.00 in
11:46 89.4 °F 67.7 °F 29.93 in West 5.0 mph 9.0 mph 49 % 0.00 in
11:51 89.7 °F 66.8 °F 29.93 in WSW 5.0 mph 7.0 mph 47 % 0.00 in
11:56 89.9 °F 67.0 °F 29.93 in WSW 5.0 mph 9.0 mph 47 % 0.00 in
12:01 90.1 °F 67.2 °F 29.93 in WSW 3.8 mph 4.6 mph 47 % 0.00 in
12:06 90.4 °F 68.1 °F 29.93 in West 2.0 mph 6.0 mph 48 % 0.00 in
12:11 90.7 °F 68.3 °F 29.93 in West 1.0 mph 6.0 mph 48 % 0.00 in
12:16 91.1 °F 68.7 °F 29.93 in West 2.0 mph 6.0 mph 48 % 0.00 in
12:21 91.4 °F 70.1 °F 29.93 in WSW 3.0 mph 6.0 mph 50 % 0.00 in
12:26 91.5 °F 67.2 °F 29.92 in WSW 2.0 mph 7.0 mph 45 % 0.00 in
12:31 91.8 °F 67.4 °F 29.92 in WSW 3.0 mph 6.0 mph 45 % 0.00 in
12:36 92.0 °F 68.3 °F 29.92 in WSW 1.0 mph 7.0 mph 46 % 0.00 in
12:41 92.3 °F 68.5 °F 29.92 in WSW 2.0 mph 7.0 mph 46 % 0.00 in
12:46 92.3 °F 67.2 °F 29.92 in WNW 2.3 mph 4.6 mph 44 % 0.00 in
12:51 92.4 °F 68.6 °F 29.92 in West 2.9 mph 5.0 mph 46 % 0.00 in
12:56 92.5 °F 66.1 °F 29.91 in SW 2.6 mph 8.1 mph 42 % 0.00 in
13:01 92.5 °F 68.1 °F 29.91 in South 2.6 mph 6.9 mph 45 % 0.00 in
13:06 92.5 °F 68.7 °F 29.91 in SW 1.4 mph 5.0 mph 46 % 0.00 in
13:11 92.6 °F 66.2 °F 29.91 in SW 3.9 mph 5.8 mph 42 % 0.00 in
13:16 92.6 °F 69.4 °F 29.91 in WSW 4.1 mph 6.9 mph 47 % 0.00 in
13:21 92.8 °F 67.0 °F 29.91 in West 3.1 mph 4.6 mph 43 % 0.00 in
13:26 92.9 °F 69.7 °F 29.91 in SSW 2.1 mph 5.0 mph 47 % 0.00 in
13:31 93.1 °F 67.3 °F 29.91 in West 2.1 mph 3.5 mph 43 % 0.00 in
13:36 93.3 °F 68.8 °F 29.91 in WNW 1.5 mph 4.6 mph 45 % 0.00 in
13:41 93.5 °F 68.3 °F 29.90 in WNW 2.5 mph 3.5 mph 44 % 0.00 in
13:47 93.7 °F 68.5 °F 29.90 in WSW 0.7 mph 3.0 mph 44 % 0.00 in
13:51 94.0 °F 68.8 °F 29.90 in West 2.4 mph 4.0 mph 44 % 0.00 in
13:56 94.2 °F 66.9 °F 29.91 in NW 4.0 mph 4.0 mph 41 % 0.00 in
14:01 94.3 °F 67.7 °F 29.91 in West 0.7 mph 5.0 mph 42 % 0.00 in
14:07 94.4 °F 70.4 °F 29.91 in NW 1.9 mph 3.5 mph 46 % 0.00 in
14:11 94.5 °F 67.2 °F 29.90 in SW 2.7 mph 10.4 mph 41 % 0.00 in
14:16 94.5 °F 67.9 °F 29.90 in WNW 0.5 mph 2.3 mph 42 % 0.00 in
14:21 94.6 °F 69.3 °F 29.91 in ESE 3.1 mph 4.6 mph 44 % 0.00 in
14:26 94.6 °F 68.0 °F 29.90 in West 2.3 mph 3.5 mph 42 % 0.00 in
14:31 94.6 °F 70.0 °F 29.90 in North 1.0 mph 4.6 mph 45 % 0.00 in
14:37 94.6 °F 68.0 °F 29.90 in WNW 0.6 mph 1.2 mph 42 % 0.00 in
14:42 94.6 °F 69.3 °F 29.90 in NW 0.3 mph 4.6 mph 44 % 0.00 in
14:47 94.7 °F 68.7 °F 29.90 in NW 2.3 mph 5.0 mph 43 % 0.00 in
14:52 94.8 °F 68.1 °F 29.90 in NW 1.7 mph 4.6 mph 42 % 0.00 in
14:57 94.7 °F 67.3 °F 29.90 in WNW 1.3 mph 5.8 mph 41 % 0.00 in
15:02 94.6 °F 66.5 °F 29.90 in WNW 4.8 mph 8.1 mph 40 % 0.00 in
15:07 94.6 °F 69.3 °F 29.90 in NW 1.2 mph 3.5 mph 44 % 0.00 in
15:12 94.4 °F 67.1 °F 29.90 in WNW 5.0 mph 8.1 mph 41 % 0.00 in
15:17 94.2 °F 68.3 °F 29.90 in West 2.4 mph 5.8 mph 43 % 0.00 in
15:22 94.3 °F 67.0 °F 29.90 in North 3.3 mph 6.9 mph 41 % 0.00 in
15:27 94.3 °F 69.0 °F 29.90 in WNW 1.3 mph 5.0 mph 44 % 0.00 in
15:32 94.1 °F 67.5 °F 29.90 in NNW 2.4 mph 4.6 mph 42 % 0.00 in
15:37 94.2 °F 68.9 °F 29.90 in NW 0.9 mph 3.5 mph 44 % 0.00 in
15:42 94.2 °F 68.3 °F 29.90 in NE 1.8 mph 3.5 mph 43 % 0.00 in
15:47 94.0 °F 66.7 °F 29.91 in NW 2.7 mph 3.5 mph 41 % 0.00 in
15:49 94.0 °F 67.4 °F 29.90 in NW 3.4 mph 4.0 mph 42 % 0.00 in
15:55 93.7 °F 68.5 °F 29.91 in NE 1.6 mph 3.5 mph 44 % 0.00 in
16:00 93.4 °F 68.9 °F 29.90 in NW 1.6 mph 5.0 mph 45 % 0.00 in
16:05 93.4 °F 67.6 °F 29.90 in WNW 1.6 mph 4.0 mph 43 % 0.00 in
16:10 93.4 °F 67.6 °F 29.90 in NNW 2.6 mph 4.0 mph 43 % 0.00 in
16:15 93.2 °F 67.4 °F 29.90 in North 1.2 mph 2.3 mph 43 % 0.00 in
16:20 92.9 °F 67.8 °F 29.90 in NNW 1.7 mph 3.5 mph 44 % 0.00 in
16:21 92.9 °F 67.8 °F 29.90 in North 1.0 mph 6.0 mph 44 % 0.00 in
16:26 92.9 °F 67.1 °F 29.90 in WNW 1.0 mph 7.0 mph 43 % 0.00 in
16:30 92.9 °F 67.8 °F 29.90 in WNW 2.3 mph 4.6 mph 44 % 0.00 in
16:36 92.8 °F 67.7 °F 29.90 in WNW 1.0 mph 4.0 mph 44 % 0.00 in
16:41 92.7 °F 67.6 °F 29.90 in NNW 1.0 mph 3.0 mph 44 % 0.00 in
16:46 92.5 °F 68.8 °F 29.90 in NNW 2.0 mph 5.0 mph 46 % 0.00 in
16:51 92.4 °F 67.3 °F 29.90 in NW 1.0 mph 5.0 mph 44 % 0.00 in
16:56 92.4 °F 67.3 °F 29.90 in NW 3.0 mph 7.0 mph 44 % 0.00 in
17:01 92.2 °F 67.8 °F 29.89 in Calm   1.2 mph 45 % 0.00 in
17:06 91.9 °F 68.2 °F 29.89 in WNW 1.0 mph 2.3 mph 46 % 0.00 in
17:11 91.7 °F 66.7 °F 29.89 in WNW 1.0 mph 3.0 mph 44 % 0.00 in
17:16 91.3 °F 66.3 °F 29.89 in West 3.0 mph 6.0 mph 44 % 0.00 in
17:21 91.0 °F 66.7 °F 29.89 in SW 2.0 mph 4.0 mph 45 % 0.00 in
17:26 90.5 °F 66.3 °F 29.90 in SW 1.0 mph 4.0 mph 45 % 0.00 in
17:31 90.0 °F 67.0 °F 29.89 in SW 1.0 mph 3.0 mph 47 % 0.00 in
17:36 89.5 °F 66.6 °F 29.89 in WSW 3.0 mph 8.0 mph 47 % 0.00 in
17:40 89.0 °F 66.2 °F 29.89 in WSW 2.0 mph 5.0 mph 47 % 0.00 in
17:46 88.8 °F 66.0 °F 29.89 in WSW 2.0 mph 6.0 mph 47 % 0.00 in
17:51 88.6 °F 65.8 °F 29.89 in SW 0.7 mph 5.8 mph 47 % 0.00 in
17:55 88.4 °F 66.8 °F 29.89 in WSW 1.0 mph 6.0 mph 49 % 0.00 in
18:01 88.1 °F 64.7 °F 29.90 in WNW 1.9 mph 6.9 mph 46 % 0.00 in
18:03 88.0 °F 64.6 °F 29.90 in West 4.6 mph 5.8 mph 46 % 0.00 in
18:08 87.8 °F 65.7 °F 29.90 in SW 2.1 mph 4.0 mph 48 % 0.00 in
18:13 87.6 °F 66.7 °F 29.91 in South 3.2 mph 6.9 mph 50 % 0.00 in
18:18 87.3 °F 67.5 °F 29.90 in South 0.4 mph 2.3 mph 52 % 0.00 in
18:24 87.2 °F 68.0 °F 29.91 in SSW 1.7 mph 5.0 mph 53 % 0.00 in
18:29 86.9 °F 68.3 °F 29.91 in WSW 0.6 mph 2.0 mph 54 % 0.00 in
18:34 86.6 °F 68.5 °F 29.91 in WSW 0.9 mph 4.6 mph 55 % 0.00 in
18:39 86.1 °F 68.0 °F 29.91 in SW 0.9 mph 3.5 mph 55 % 0.00 in
18:44 85.7 °F 68.2 °F 29.91 in SW 0.9 mph 5.8 mph 56 % 0.00 in
18:49 85.4 °F 68.4 °F 29.91 in WSW 2.8 mph 6.9 mph 57 % 0.00 in
18:54 85.1 °F 68.2 °F 29.91 in WSW 0.5 mph 2.3 mph 57 % 0.00 in
18:59 84.8 °F 68.4 °F 29.91 in WSW 1.3 mph 3.5 mph 58 % 0.00 in
19:04 84.5 °F 67.6 °F 29.91 in SW 0.5 mph 3.5 mph 57 % 0.00 in
19:09 84.2 °F 67.8 °F 29.91 in NW 3.0 mph 5.8 mph 58 % 0.00 in
19:14 83.9 °F 68.0 °F 29.91 in WSW 1.4 mph 3.5 mph 59 % 0.00 in
19:19 83.6 °F 67.8 °F 29.91 in WSW 0.3 mph 2.3 mph 59 % 0.00 in
19:24 83.4 °F 67.6 °F 29.91 in WSW 0.4 mph 1.2 mph 59 % 0.00 in
19:29 83.3 °F 68.0 °F 29.91 in Calm   1.2 mph 60 % 0.00 in
19:34 83.2 °F 67.9 °F 29.91 in SW 0.1 mph 1.2 mph 60 % 0.00 in
19:39 83.0 °F 68.2 °F 29.91 in SW 0.4 mph 2.3 mph 61 % 0.00 in
19:44 82.8 °F 68.0 °F 29.92 in East 0.2 mph 1.2 mph 61 % 0.00 in
19:49 82.6 °F 68.3 °F 29.92 in Calm   1.2 mph 62 % 0.00 in
19:54 82.3 °F 68.0 °F 29.92 in East 0.3 mph 2.3 mph 62 % 0.00 in
19:59 82.1 °F 67.8 °F 29.92 in Calm   2.3 mph 62 % 0.00 in
20:04 81.9 °F 68.1 °F 29.92 in WSW 0.6 mph 2.3 mph 63 % 0.00 in
20:09 81.6 °F 67.8 °F 29.92 in WSW 0.4 mph 2.3 mph 63 % 0.00 in
20:14 81.3 °F 67.5 °F 29.92 in SW 0.4 mph 2.3 mph 63 % 0.00 in
20:19 81.1 °F 67.3 °F 29.92 in SW 0.3 mph 1.2 mph 63 % 0.00 in
20:24 80.7 °F 67.4 °F 29.92 in Calm   1.2 mph 64 % 0.00 in
20:29 80.4 °F 67.1 °F 29.92 in Calm     64 % 0.00 in
20:34 80.2 °F 66.9 °F 29.92 in Calm     64 % 0.00 in
20:39 79.9 °F 67.1 °F 29.92 in Calm     65 % 0.00 in
20:44 79.7 °F 67.3 °F 29.92 in Calm     66 % 0.00 in
20:49 79.4 °F 67.0 °F 29.92 in SW 0.3 mph 1.2 mph 66 % 0.00 in
20:54 79.1 °F 67.2 °F 29.93 in Calm     67 % 0.00 in
20:59 78.8 °F 66.9 °F 29.93 in Calm     67 % 0.00 in
21:04 78.6 °F 66.7 °F 29.93 in Calm     67 % 0.00 in
21:09 78.4 °F 67.0 °F 29.93 in SW 0.1 mph 1.2 mph 68 % 0.00 in
21:14 78.2 °F 66.8 °F 29.94 in Calm   1.2 mph 68 % 0.00 in
21:19 77.9 °F 66.5 °F 29.94 in SW 0.5 mph 1.2 mph 68 % 0.00 in
21:24 77.7 °F 66.3 °F 29.94 in Calm   1.2 mph 68 % 0.00 in
21:29 77.5 °F 66.1 °F 29.94 in Calm     68 % 0.00 in
21:34 77.3 °F 65.9 °F 29.94 in SW 0.1 mph 1.0 mph 68 % 0.00 in
21:39 77.2 °F 66.2 °F 29.94 in Calm     69 % 0.00 in
21:45 77.0 °F 66.0 °F 29.94 in Calm     69 % 0.00 in
21:50 76.8 °F 65.9 °F 29.95 in Calm   1.2 mph 69 % 0.00 in
21:55 76.7 °F 65.8 °F 29.95 in SW 0.6 mph 2.3 mph 69 % 0.00 in
22:00 76.5 °F 65.6 °F 29.95 in Calm   1.2 mph 69 % 0.00 in
22:05 76.4 °F 65.9 °F 29.95 in SW 0.7 mph 2.3 mph 70 % 0.00 in
22:10 76.2 °F 65.7 °F 29.95 in Calm   1.2 mph 70 % 0.00 in
22:15 76.1 °F 65.6 °F 29.95 in SW 0.4 mph 1.2 mph 70 % 0.00 in
22:20 75.9 °F 65.4 °F 29.95 in SW 1.2 mph 2.3 mph 70 % 0.00 in
22:25 75.8 °F 65.7 °F 29.95 in SW 1.3 mph 2.3 mph 71 % 0.00 in
22:30 75.6 °F 65.5 °F 29.95 in SW 0.5 mph 1.2 mph 71 % 0.00 in
22:35 75.4 °F 65.3 °F 29.95 in Calm   1.2 mph 71 % 0.00 in
22:40 75.3 °F 65.2 °F 29.95 in Calm     71 % 0.00 in
22:45 75.1 °F 65.5 °F 29.95 in Calm     72 % 0.00 in
22:50 74.9 °F 65.3 °F 29.95 in Calm     72 % 0.00 in
22:55 74.7 °F 65.5 °F 29.95 in Calm     73 % 0.00 in
23:00 74.6 °F 65.8 °F 29.95 in Calm     74 % 0.00 in
23:05 74.4 °F 65.6 °F 29.95 in Calm     74 % 0.00 in
23:11 74.2 °F 65.8 °F 29.95 in West 0.1 mph   75 % 0.00 in
23:16 74.0 °F 65.6 °F 29.95 in Calm   1.0 mph 75 % 0.00 in
23:21 73.8 °F 65.4 °F 29.95 in Calm     75 % 0.00 in
23:26 73.7 °F 65.3 °F 29.95 in Calm     75 % 0.00 in
23:31 73.5 °F 65.8 °F 29.95 in Calm     77 % 0.00 in
23:35 73.3 °F 65.7 °F 29.95 in Calm     77 % 0.00 in
23:40 73.1 °F 65.8 °F 29.95 in Calm     78 % 0.00 in
23:46 73.0 °F 65.4 °F 29.94 in Calm     77 % 0.00 in
23:49 72.9 °F 65.3 °F 29.95 in Calm     77 % 0.00 in
23:54 72.8 °F 65.5 °F 29.95 in Calm     78 % 0.00 in
23:59 72.8 °F 66.3 °F 29.97 in West 2.7 mph 3.5 mph 80 % 0.00 in
Crab Meadow Weather
Compliments of Weather Underground - 3 mb

Script developed by  Jim McMurry - jmcmurry@mwt.net Adapted for the template by  Wim van der Kuil - Leuven-Template.eu

Astronomy: A year on Venus is 225 days.